EHI
0 0 0 0 0 0 0 0 0 0 0 0 0 0 0 0 0 0 0 0 0 0 0 0 0 0 0 0 0 0 0 0 0 0 0 0 0 0 0 0 0 0 0
0 0 0 0 0 0 0 0 0 0 0 0 0 0 0 0 0 0 0 0 0 0 0 0 0 0 0 0 0 0 0 0 0 0 0 0 0 0 0 0 0 0 0
1 0 0 0 0 0 0 0 0 0 0 0 0 0 0 0 0 0 0 0 0 0 0 0 0 0 0 0 0 0 0 0 0 0 0 0 0 0 0 0 0 0 0
2 1 0 0 0 0 0 0 0 0 0 0 0 0 0 0 0 0 0 0 0 0 0 0 0 0 0 0 0 0 0 0 0 0 0 0 0 0 0 0 0 0 0
3 2 1 0 0 0 0 0 0 0 0 0 0 0 0 0 0 0 0 0 0 0 0 0 0 0 0 0 0 0 0 0 0 0 0 0 0 0 0 0 0 0 0
2 2 1 0 0 0 0 0 0 0 0 0 0 0 0 0 0 0 0 0 0 0 0 0 0 0 0 0 0 0 0 0 0 0 0 0 0 0 0 0 0 0 0
1 1 0 0 0 0 0 0 0 0 0 0 0 0 0 0 0 0 0 0 0 0 0 0 0 0 0 0 0 0 0 0 0 0 0 0 0 0 0 0 0 0 0
0 0 0 0 0 0 0 0 0 0 0 0 0 0 0 0 0 0 0 0 0 0 0 0 0 0 0 0 0 0 0 0 0 0 0 0 0 0 0 0 0 0 0
0 0 0 0 0 0 0 0 0 0 0 0 0 0 0 0 0 0 0 0 0 0 0 0 0 0 0 0 0 0 0 0 0 0 0 0 0 0 0 0 0 0 0
0 0 0 0 0 0 0 0 0 0 0 0 0 0 0 0 0 0 0 0 0 0 0 0 0 0 0 0 0 0 0 0 0 1 1 1 0 0 0 0 0 0 0
0 0 0 0 0 0 0 0 0 0 0 0 0 0 0 0 0 0 0 0 0 0 0 0 0 0 0 0 0 0 0 0 0 1 1 1 1 1 0 0 0 0 0
0 0 0 0 0 0 0 0 0 0 0 0 0 0 0 0 0 0 0 0 0 0 0 0 0 0 0 0 0 0 0 0 0 0 1 1 1 1 1 1 1 0 0
0 0 0 0 0 0 0 0 0 0 0 0 0 0 0 0 0 0 0 0 0 0 0 0 0 0 0 0 0 0 0 0 0 0 0 0 1 1 1 1 1 0 0
0 0 0 0 0 0 0 0 0 0 0 0 0 0 0 0 0 0 0 0 0 0 0 0 0 0 0 0 0 0 0 0 0 0 0 0 0 0 0 1 1 0 0
0 0 0 0 0 0 0 0 0 0 0 0 0 0 0 0 0 0 0 0 0 0 0 0 0 0 0 0 0 0 0 0 0 0 0 0 0 0 0 0 0 0 0
0 0 0 0 0 0 0 0 0 0 0 0 0 0 0 0 0 0 0 0 0 0 0 0 0 0 0 0 0 0 0 0 0 0 0 0 0 0 0 0 0 0 0
0 0 0 0 0 0 0 0 0 0 0 0 0 0 0 0 0 0 0 0 0 0 0 0 0 0 0 0 0 0 0 0 0 0 0 0 0 0 0 0 0 0 0
0 0 0 0 0 0 0 0 0 0 0 0 0 0 0 0 0 0 0 0 0 0 0 0 0 0 0 0 0 0 0 0 0 0 0 0 0 0 0 0 0 0 0
0 0 0 0 0 0 0 0 0 0 0 0 0 0 0 0 0 0 0 0 0 0 0 0 0 0 0 0 0 0 0 0 0 0 0 0 0 0 0 0 0 0 0
0 0 0 0 0 0 0 0 0 0 0 0 0 0 0 0 0 0 0 0 0 0 0 0 0 0 0 0 0 0 0 0 0 0 0 0 0 0 0 0 0 0 0
0 0 0 0 0 0 0 0 0 0 0 0 0 0 0 0 0 0 0 0 0 0 0 0 0 0 0 0 0 0 0 0 0 0 0 0 0 0 0 0 0 0 0
0 0 0 0 0 0 0 0 0 0 0 0 0 0 0 0 0 0 0 0 0 0 0 0 0 0 0 0 0 0 0 0 0 0 0 0 0 0 0 0 0 0 0
0 0 0 0 0 0 0 0 0 0 0 0 0 0 0 0 0 0 0 0 0 0 0 0 0 0 0 0 0 0 0 0 0 0 0 0 0 0 0 0 0 0 0
0 0 0 0 0 0 0 0 0 0 0 0 0 0 0 0 0 0 0 0 0 0 0 0 0 0 0 0 0 0 0 0 0 0 0 0 0 0 0 0 0 0 0
0 0 0 0 0 0 0 0 0 0 0 0 0 0 0 0 0 0 0 0 0 0 0 0 0 0 0 0 0 0 0 0 0 0 0 0 0 0 0 0 0 0 0
0 0 0 0 0 0 0 0 0 0 0 0 0 0 0 0 0 0 0 0 0 0 0 0 0 0 0 0 0 0 0 0 0 0 0 0 0 0 0 0 0 0 0
Wind_Speed
3 3 3 3 3 3 2 2 2 2 3 3 3 4 4 4 5 4 3 6 7 7 8 9 9 9 9 9 9 9 8 8 7 8 8 8 8 8 8 9 8 8 8
3 3 3 3 3 2 2 2 3 3 3 3 3 3 4 4 4 5 4 4 6 7 7 8 8 9 9 8 8 8 8 7 7 7 7 7 7 8 8 8 8 8 8
3 3 3 3 2 2 3 3 3 3 3 3 3 3 3 4 4 4 4 3 3 5 7 8 8 8 8 8 8 8 7 6 6 6 6 6 6 7 7 7 7 7 7
4 3 3 3 2 2 3 3 3 3 3 3 3 3 3 3 4 4 4 4 3 3 5 7 7 7 7 6 6 6 6 6 6 6 6 6 6 6 6 7 7 7 7
4 3 3 3 3 3 3 3 3 3 4 4 4 3 3 3 3 4 4 4 4 4 3 5 6 6 6 6 5 5 6 6 6 6 5 5 5 6 6 6 6 6 6
3 4 3 3 3 3 2 3 4 4 4 4 4 4 3 3 3 3 3 3 4 4 4 3 3 3 5 5 5 5 5 6 5 5 5 5 5 5 5 5 5 5 5
3 4 3 3 3 3 3 4 4 6 4 3 3 3 2 3 3 2 2 2 3 3 3 3 2 2 2 4 5 5 5 4 5 5 5 5 5 5 5 5 5 5 6
3 3 4 3 3 3 3 4 4 4 3 2 3 3 2 1 2 2 2 2 2 2 2 3 3 3 2 2 3 5 4 4 4 3 4 4 4 4 5 5 5 5 6
3 3 4 4 4 3 3 3 4 4 4 2 1 3 3 3 1 1 1 2 2 2 1 2 3 3 3 3 2 3 4 4 3 2 2 3 3 3 4 4 5 5 5
3 4 4 3 3 3 4 3 3 2 4 3 1 1 2 3 3 2 0 1 1 2 1 2 3 3 3 2 3 4 4 4 4 3 2 2 2 2 2 3 3 4 5
3 4 4 4 3 3 4 4 3 2 2 3 2 1 1 1 2 3 2 1 0 0 1 2 2 2 2 2 2 3 4 3 3 3 2 2 2 1 2 3 3 3 3
2 3 4 4 4 3 4 4 4 4 2 3 2 2 2 2 2 2 2 2 1 0 0 1 1 1 1 2 3 4 3 3 3 3 2 2 3 3 2 3 3 3 3
2 3 3 3 3 3 3 4 3 3 3 3 3 2 2 1 2 2 2 1 1 0 1 0 1 1 1 2 2 4 3 3 3 2 2 2 3 3 3 2 2 3 3
3 4 4 3 4 4 4 4 3 3 3 2 2 2 2 1 2 2 2 3 1 0 0 1 0 1 1 1 2 3 2 4 3 3 2 3 4 4 4 3 3 3 3
4 4 4 4 4 4 4 4 3 3 3 3 3 2 2 2 2 1 2 3 4 2 2 2 1 1 1 2 2 2 2 4 4 4 4 4 4 4 4 3 3 3 3
4 5 5 4 4 4 4 4 3 3 3 3 2 3 2 2 2 2 2 2 2 3 2 1 1 1 1 2 2 1 1 3 3 3 3 4 4 3 3 3 3 3 3
5 5 5 5 5 5 5 4 4 4 4 3 3 3 3 3 2 2 2 2 2 2 2 1 0 1 2 2 1 1 1 1 1 3 3 3 3 2 2 2 2 2 3
4 5 5 5 5 5 5 5 5 5 5 4 4 4 4 3 3 2 2 2 2 3 3 3 1 1 1 2 2 1 1 1 1 2 2 2 2 2 2 2 2 2 2
3 4 5 5 5 5 5 5 5 5 5 5 4 5 4 4 3 3 3 3 2 2 2 3 2 1 1 1 1 1 1 0 0 0 1 1 1 1 1 1 1 2 2
3 4 4 5 5 5 4 5 5 5 5 4 4 4 4 4 4 4 3 3 3 3 3 3 2 1 1 1 1 1 0 0 0 1 1 1 1 1 1 1 1 2 3
3 3 4 4 4 4 4 5 5 5 4 4 3 3 3 4 4 4 3 3 3 3 3 3 3 2 2 2 2 2 1 1 1 1 1 1 1 1 1 2 2 2 3
3 3 4 4 4 3 5 6 5 4 4 4 4 3 3 4 5 5 4 4 4 4 4 4 3 3 3 3 3 2 2 1 1 1 0 2 1 1 2 1 3 3 4
2 2 3 3 3 3 5 6 6 4 4 4 4 4 3 3 4 4 4 3 2 2 4 4 4 4 4 4 4 4 3 2 2 2 0 2 1 2 2 2 4 4 4
2 3 3 3 3 3 5 5 6 4 4 4 4 4 4 4 4 5 4 3 2 1 2 2 3 2 2 2 3 4 3 2 0 1 1 2 2 2 2 2 4 4 4
1 2 3 3 3 3 4 5 5 4 3 3 3 3 4 4 6 7 6 5 3 2 2 4 4 3 3 3 3 3 2 2 1 1 0 1 1 2 2 2 2 4 5
2 2 2 2 3 3 5 5 5 3 3 3 2 2 4 5 7 7 6 6 5 3 3 2 2 2 2 2 3 2 3 3 1 1 1 1 0 1 2 2 1 2 3
Wind_Direction
136 135 139 143 144 145 150 150 128 117 104 96 93 92 95 92 93 95 96 94 95 99 101 99 97 93 91 89 87 85 84 83 82 80 78 76 75 74 73 69 66 65 65
134 136 129 132 133 137 138 133 125 113 100 97 93 90 95 99 99 100 105 96 92 93 97 98 95 92 91 90 87 83 81 81 82 82 80 78 76 74 71 67 65 63 62
132 130 127 124 131 130 122 109 106 98 99 95 92 83 82 83 95 105 109 104 96 86 90 92 92 92 92 90 86 82 79 79 82 83 84 83 81 75 70 68 65 62 60
130 123 125 127 129 122 118 115 111 103 98 87 80 73 72 73 74 92 93 99 103 99 87 86 84 86 87 90 86 82 79 78 78 82 87 88 85 79 72 69 66 62 61
139 125 128 129 123 122 127 131 119 117 111 100 90 78 71 74 74 82 88 92 96 104 102 89 84 80 76 81 85 84 82 82 79 77 85 92 87 81 74 69 67 62 61
141 126 127 132 126 123 132 134 128 115 111 108 94 77 65 72 71 73 84 91 92 94 97 105 95 79 73 73 80 80 81 80 78 80 81 91 90 86 78 69 63 61 61
140 133 134 134 128 132 144 139 128 124 119 118 103 87 53 57 74 75 70 83 90 94 94 98 103 98 83 74 74 75 75 82 81 81 79 86 89 89 81 71 65 64 60
140 138 139 143 139 134 128 129 130 130 137 144 136 131 120 47 31 52 63 73 80 87 95 96 91 96 99 89 71 71 70 74 81 82 81 82 87 87 81 73 68 67 61
146 145 146 143 145 140 141 141 142 142 154 168 134 138 145 168 142 36 67 81 83 75 75 81 81 76 83 86 86 67 67 59 58 62 71 83 85 88 79 71 67 63 56
149 148 149 146 146 144 145 151 143 146 150 158 152 86 114 129 137 139 354 40 87 87 78 77 76 71 81 92 87 75 68 58 53 43 50 76 73 81 81 76 64 55 53
154 155 154 150 151 152 151 148 142 148 155 156 154 138 106 83 107 133 166 194 2 25 81 89 86 73 68 79 95 78 73 61 51 38 49 49 38 44 64 63 55 47 44
161 159 155 153 156 157 158 153 155 166 169 160 152 146 145 144 162 142 159 174 180 229 78 94 98 95 83 77 74 73 74 67 53 39 32 30 25 30 45 48 44 38 30
167 173 166 163 159 160 159 153 154 164 168 165 164 161 155 153 141 134 131 148 147 184 140 85 123 118 91 85 76 61 64 59 48 37 26 29 36 38 43 38 36 32 23
174 172 169 166 163 158 155 156 152 162 161 164 166 158 141 141 125 136 144 144 136 274 198 222 112 116 93 82 71 65 59 57 50 33 30 45 49 50 47 39 40 34 22
165 165 167 167 167 163 160 157 157 166 162 166 168 162 155 152 144 148 145 153 153 177 228 220 155 100 96 81 77 63 55 57 56 51 51 52 58 63 60 45 42 33 19
166 166 171 172 173 170 165 161 160 166 166 171 165 168 172 168 163 157 163 171 161 165 194 204 152 142 108 86 81 62 59 57 57 60 63 63 61 62 63 60 46 32 17
173 175 175 176 177 175 170 166 169 168 173 176 175 175 184 173 169 172 170 173 173 154 174 214 107 117 119 124 91 54 33 51 54 59 67 67 61 65 74 71 57 29 10
182 181 176 178 178 175 173 172 176 176 178 182 185 182 190 175 172 173 174 183 182 173 167 180 188 176 160 158 140 112 54 56 73 59 55 61 58 67 76 68 49 24 359
186 185 178 182 183 182 182 181 179 180 182 185 184 185 187 175 184 181 181 187 186 172 159 164 176 175 165 153 125 103 95 17 352 49 29 42 47 42 38 29 5 355 343
191 193 188 184 185 184 184 184 182 181 180 180 182 184 185 182 186 185 186 187 175 164 153 158 165 174 171 162 146 170 182 239 291 328 294 262 263 295 292 303 320 324 322
199 196 188 183 181 183 186 185 181 181 176 174 176 180 179 173 173 177 179 179 174 169 161 165 170 169 177 171 191 189 188 195 285 265 272 273 252 264 269 273 285 302 312
193 186 186 180 180 191 188 189 185 177 172 172 174 173 168 173 172 169 165 169 177 180 179 176 183 189 193 189 177 173 164 170 252 271 269 287 256 245 244 237 269 291 301
187 181 178 173 177 184 187 187 188 177 169 173 174 170 170 169 158 150 146 138 138 163 182 180 184 196 189 190 176 178 187 188 210 225 191 269 271 258 248 257 268 278 289
180 177 171 177 178 182 183 184 174 161 157 167 171 169 166 168 167 156 143 135 133 141 179 167 172 186 180 172 176 179 177 161 159 243 179 240 261 264 270 268 260 267 290
178 170 171 175 176 178 179 174 162 149 148 157 165 166 168 168 167 163 152 150 146 139 110 124 127 130 129 134 150 130 135 141 233 254 224 194 263 293 284 265 259 279 295
177 164 162 162 166 167 170 168 164 148 148 151 146 155 172 174 170 168 163 162 168 173 149 126 110 94 108 112 120 151 165 171 177 233 238 169 246 342 303 284 268 279 287